Regional Weather Roundup
Issued by NWS

Home | Current Version | Previous Version | Text Only | Print | Product List | Glossary Off
Versions: 1 2 3 4 5 6 7 8 9 10 11 12 13 14 15 16 17 18 19 20 21 22 23 24 25 26 27 28 29 30 31 32 33 34 35 36 37 38 39 40 41 42 43 44 45 46 47 48 49 50

000
ASUS43 KIND 271009
RWRIN

WEATHER ROUNDUP FOR INDIANA
NATIONAL WEATHER SERVICE INDIANAPOLIS IN
600 AM EDT THU AUG 27 2015

NOTE: "FAIR" INDICATES FEW OR NO CLOUDS BELOW 12,000 FEET WITH NO
SIGNIFICANT WEATHER AND/OR OBSTRUCTIONS TO VISIBILITY.

* - STATION DOES NOT REPORT WEATHER SUCH AS PRECIPITATION OR FOG.

+ - STATION NOT QUALITY CONTROLLED BY THE NATIONAL WEATHER SERVICE.
    USE DATA WITH CAUTION...ESPECIALLY DEWPOINT AND RELATIVE
    HUMIDITY OBSERVATIONS.

INZ001>003-010>013-019-020-271100-
NORTHWEST INDIANA

CITY           SKY/WX    TMP DP  RH WIND       PRES   REMARKS
GARY /AIRPORT/ CLOUDY    61  54  77 SW5       30.18R
KNOX *+          N/A     48  48 100 CALM      30.18R VSB 1/2
LA PORTE +     FOG      N/A N/A N/A CALM      30.19R VSB 1/2
MICHIGAN CITY+ CLOUDY    57  55  94 CALM      30.19R
MONTICELLO +   CLEAR     49  49 100 CALM      30.17S FOG
RENSSELAER +   CLEAR     48  48 100 CALM      30.18F FOG
VALPARAISO     CLOUDY    60  55  83 SE7       30.19R

$$

LMZ046-743>745-271100-
SOUTHERN LAKE MICHIGAN

STATION/POSITION TIME  TEMP    WIND        PRES    WAVE
                       AIR SEA DIR/SP/G            HT
                 (UTC) (F)     (DEG/KT/KT) (MB)    (FT)
BURNS HARBOR     0900   62     160/  3/  5 1021.7S
MICHIGAN CITY    0900   62     150/  3/  4   N/A
5NW MICH CITY    1000   64 71  190/  4/  8   N/A     1

$$

INZ004-005-014>016-021>024-271100-
NORTH CENTRAL INDIANA

CITY           SKY/WX    TMP DP  RH WIND       PRES   REMARKS
GOSHEN         FOG       50  48  93 CALM      30.18R VSB 1/4
LOGANSPORT +   FOG       50  46  87 CALM      30.18S VSB 1
PERU/GRISSOM   CLOUDY    53  52  96 CALM      30.17R
ROCHESTER +    FOG       50  50 100 CALM      30.18S VSB 3/4
SOUTH BEND     PTCLDY    48  47  96 CALM      30.19R FOG
WARSAW +       FOG       48  48 100 CALM      30.18S VSB 1/4

$$

INZ006>009-017-018-025>027-271100-
NORTHEAST INDIANA

CITY           SKY/WX    TMP DP  RH WIND       PRES   REMARKS
ANGOLA *+      CLOUDY    50  50 100 CALM      30.17S VSB 0
AUBURN +       FOG       52  50  93 CALM      30.18S VSB 1/4
FORT WAYNE     PTCLDY    51  49  92 CALM      30.18S FOG
HUNTINGTON +   FOG       49  49  97 CALM      30.18R VSB 3/4

$$

INZ028-029-035-036-043>045-051>053-271100-
WEST CENTRAL INDIANA

CITY           SKY/WX    TMP DP  RH WIND       PRES   REMARKS
CRAWFORDSVL +  CLEAR     50  50 100 CALM      30.17S FOG
GREENCASTLE +  CLEAR     54  50  87 CALM      30.16R
LAFAYETTE      CLEAR     51  51 100 CALM      30.17S
TERRE HAUTE    CLEAR     53  52  96 N3        30.15S

$$

INZ030>032-037>040-046>048-054>057-064-065-271100-
CENTRAL INDIANA

CITY           SKY/WX    TMP DP  RH WIND       PRES   REMARKS
FRANKFORT +    CLEAR    N/A N/A N/A CALM      30.19S HAZE
GREENWOOD *+   CLEAR     57  54  88 CALM      30.16S
INDIANAPOLIS   PTCLDY    58  55  90 N8        30.14R
-EAGLE CREEK   CLEAR     57  55  93 NE3       30.16R
KOKOMO *+      MOCLDY    54  48  82 CALM      30.18S VSB 3/4
MARION +       CLOUDY    53  52  99 CALM      30.18S
MT COMFORT *+  MOCLDY    54 N/A N/A CALM      30.17R
SHELBYVILLE    CLEAR     58  55  90 NE3       30.15R
ZIONSVILLE +   MOCLDY    54  51  90 CALM      30.18R FOG

$$

INZ033-034-041-042-049-050-058-059-271100-
EAST CENTRAL INDIANA

CITY           SKY/WX    TMP DP  RH WIND       PRES   REMARKS
MUNCIE         CLOUDY    57  56  96 N3        30.17R

$$

INZ060-061-067>069-081>083-085>088-271100-
SOUTHWEST INDIANA

CITY           SKY/WX    TMP DP  RH WIND       PRES   REMARKS
EVANSVILLE     CLEAR     59  56  89 CALM      30.13S
HUNTINGBURG *+   N/A     55  54  94 E3        30.13S VSB 3/4
WASHINGTON +   CLEAR     55  51  87 CALM      30.13S

$$

INZ062-063-066-070>080-084-089>092-271100-
SOUTH CENTRAL AND SOUTHEAST INDIANA

CITY           SKY/WX    TMP DP  RH WIND       PRES   REMARKS
BLOOMINGTON    CLEAR     55  53  93 CALM      30.14S FOG
MADISON *+     CLEAR     57  54  88 CALM      30.16S
NORTH VERNON + CLEAR     59  59 100 CALM      30.16R
SEYMOUR +      CLEAR     54  52  94 CALM      30.14S FOG

$$



USA.gov is the U.S. government's official web portal to all federal, state and local government web resources and services.